Probability
1 2 2 1 0 0 0 0 0 0 0 0 0 0 0 0 0 0 0 0 0 0 0 1 2 4 3 1 1 2 3 4 3 1 0 1 2 2 1 0 1 0 0
1 2 1 0 0 0 0 0 0 0 0 0 0 0 0 0 0 0 0 0 0 0 0 0 1 3 3 2 2 2 3 3 3 1 0 1 2 3 1 1 1 1 0
1 1 1 0 0 0 0 0 0 0 0 0 0 0 0 0 0 0 0 0 0 0 0 0 0 1 2 1 1 1 1 2 3 2 1 1 3 3 2 2 1 1 0
0 0 0 0 0 0 0 0 0 0 0 0 0 0 0 0 0 0 0 0 0 0 0 0 0 0 0 0 0 0 0 1 3 3 3 3 3 3 2 2 1 0 1
0 0 0 0 0 0 0 0 0 0 0 0 0 0 0 0 0 0 0 0 0 0 0 0 0 0 0 0 0 0 0 1 4 5 4 3 2 2 1 1 0 0 1
0 0 0 0 0 0 0 0 0 0 0 0 0 0 0 0 0 0 0 0 0 0 0 0 0 0 0 0 0 0 1 2 5 6 5 3 2 1 0 0 0 0 1
1 0 0 0 0 0 0 0 0 0 0 0 0 0 0 0 0 0 0 0 0 0 0 0 0 0 0 0 0 0 1 2 5 7 5 3 1 0 0 0 0 0 0
2 2 2 1 1 0 0 0 0 0 0 0 0 0 0 0 0 0 0 0 0 0 0 0 0 0 0 0 0 0 0 1 3 6 5 3 1 0 0 0 0 0 1
3 3 3 3 2 1 0 0 0 0 0 0 0 0 0 0 0 0 0 0 0 0 0 0 0 0 0 0 0 0 0 0 2 3 4 2 1 0 0 1 2 2 2
3 3 3 3 2 1 0 0 0 0 0 0 0 0 0 0 0 0 0 0 0 0 0 0 0 0 0 0 0 0 0 0 1 2 3 3 1 1 0 1 3 4 3
3 3 3 3 2 1 0 0 0 0 0 0 0 1 0 0 0 0 0 0 0 0 0 0 0 0 0 0 0 0 0 0 0 1 3 3 2 1 0 1 3 4 4
3 3 3 3 2 1 0 0 0 0 0 0 0 0 0 0 0 0 0 0 0 0 0 0 0 0 0 0 0 0 0 0 0 1 2 2 2 1 0 1 2 3 4
3 3 3 3 2 1 0 0 0 0 0 0 0 0 0 0 0 0 0 0 0 0 0 0 0 0 0 0 0 0 0 0 0 0 1 1 1 0 0 1 2 3 3
3 3 3 2 1 0 0 0 0 0 0 0 0 0 0 0 0 0 0 0 0 0 0 0 0 0 0 0 0 0 0 0 0 0 0 0 0 0 0 1 1 1 1
3 3 3 2 0 0 0 0 0 0 0 0 0 0 0 0 0 0 0 0 0 0 0 0 0 0 0 0 0 0 0 0 0 0 0 0 0 0 0 0 0 0 0
3 3 3 2 0 0 0 0 0 0 0 0 0 0 0 0 0 0 0 0 0 0 0 0 0 0 0 0 0 0 0 0 0 0 0 0 0 0 0 0 0 0 0
3 3 3 2 0 0 0 0 0 0 0 0 0 0 0 0 0 0 0 0 0 1 2 1 0 0 0 0 0 0 0 1 1 1 0 0 0 0 0 0 0 0 0
3 3 3 2 1 0 0 0 0 0 0 0 0 0 0 0 0 0 0 0 0 1 2 1 0 0 0 0 0 0 0 1 2 1 0 0 0 0 0 0 0 0 0
3 3 3 3 2 0 0 0 0 0 0 0 0 0 0 0 0 0 0 0 0 1 1 1 0 0 0 0 0 0 0 1 2 1 0 0 0 0 0 0 0 0 0
3 3 3 2 1 0 0 0 0 0 0 0 0 0 0 0 0 0 0 0 0 0 0 0 0 0 0 0 0 0 1 2 2 1 0 0 0 0 0 0 0 0 0
3 2 2 1 0 0 0 0 0 0 0 0 0 0 0 0 0 0 0 0 0 0 0 0 0 0 0 0 0 0 1 2 2 1 0 0 0 0 0 0 0 0 0
2 2 2 1 0 0 0 0 0 0 0 0 0 0 0 0 0 0 0 0 0 0 0 0 0 0 0 0 0 0 1 2 1 0 0 0 0 0 0 0 0 0 0
1 1 1 1 1 0 0 0 0 0 0 0 0 0 0 0 0 0 0 0 0 0 0 0 0 0 0 0 0 0 1 1 0 0 0 0 0 0 0 0 0 0 0
0 0 0 0 0 0 0 0 0 0 0 0 0 0 0 0 0 0 0 0 0 0 0 0 0 0 0 0 0 0 0 0 0 0 0 0 0 0 0 0 0 0 0
1 1 0 0 0 0 0 0 0 0 0 0 0 0 0 0 0 0 0 0 0 0 0 0 0 0 0 0 0 0 0 0 0 0 0 0 0 0 0 0 0 0 0
2 2 1 0 0 0 0 0 0 0 0 1 1 1 0 0 0 0 0 0 0 0 0 0 0 0 0 0 0 0 0 0 0 0 0 0 0 0 0 0 0 0 0
Wind_Speed
3 4 4 3 4 3 3 3 4 5 5 5 5 5 5 5 5 4 5 9 9 8 8 8 8 7 6 5 5 4 4 4 3 3 3 3 3 3 2 2 2 2 1
3 3 4 4 4 3 3 3 4 4 4 4 5 5 5 5 5 4 4 6 8 8 8 7 7 7 7 6 5 5 5 4 4 3 3 3 2 3 2 1 1 2 2
3 3 3 3 3 3 3 3 4 3 3 3 4 5 5 4 4 4 4 3 4 7 7 7 6 6 6 6 5 5 5 4 4 4 3 3 2 2 2 1 1 1 2
3 3 2 2 3 2 2 2 2 2 3 3 3 3 3 3 4 4 4 3 3 3 5 6 6 6 5 5 5 5 4 4 4 4 3 3 3 2 2 2 2 2 2
3 3 2 2 2 2 2 2 2 2 2 2 2 2 2 2 3 3 4 4 3 3 3 4 4 5 5 5 4 4 3 3 3 3 3 3 3 3 3 2 2 2 2
2 2 1 1 2 1 1 2 2 2 1 1 2 2 2 2 2 2 2 2 3 3 3 3 1 3 3 4 4 3 3 2 3 3 3 3 3 3 3 3 3 2 2
2 2 1 1 1 1 1 1 1 2 1 1 1 1 2 1 2 1 1 2 2 3 2 2 2 2 1 2 3 3 4 2 2 2 2 3 3 3 3 4 3 3 3
1 1 1 1 1 1 1 1 1 0 1 0 1 0 1 2 1 1 1 1 1 1 2 2 3 2 2 1 3 3 3 3 3 2 2 3 3 3 3 3 3 3 3
1 0 0 0 1 1 1 0 1 1 1 1 1 2 1 1 1 1 1 0 1 1 1 2 2 2 2 1 1 3 3 3 2 2 2 3 3 4 3 1 2 2 3
1 1 1 1 1 0 1 1 1 1 1 1 1 1 2 2 1 0 1 1 1 1 1 1 2 2 3 2 2 4 3 3 3 2 2 3 4 4 3 2 2 2 2
1 1 1 1 1 1 1 1 1 2 2 1 1 0 0 1 3 2 1 1 0 0 1 1 1 2 3 2 1 5 4 3 3 3 3 3 4 4 4 3 3 3 2
1 1 2 2 2 2 2 2 2 2 2 2 2 1 1 1 2 1 2 1 1 0 0 1 1 2 2 2 3 6 4 3 3 3 3 3 3 3 3 4 3 3 4
1 2 2 3 2 2 2 2 3 3 3 3 3 2 1 1 2 2 2 1 2 1 0 1 1 1 1 1 2 3 3 3 3 3 3 3 2 2 2 3 3 3 3
2 2 3 3 3 3 3 3 3 3 3 3 3 3 2 1 2 2 2 2 2 1 2 1 0 1 1 1 3 2 2 2 2 3 3 3 2 2 2 2 2 3 3
2 2 3 3 3 3 4 4 4 4 3 4 3 3 3 1 2 2 2 2 3 2 2 1 0 1 1 1 1 2 0 4 2 2 2 3 3 2 2 2 2 2 2
3 3 3 3 3 4 4 4 4 3 4 3 3 4 3 2 1 2 2 2 2 3 2 1 1 1 1 1 0 2 1 3 2 1 1 2 3 3 2 2 2 2 2
3 3 4 4 4 3 4 4 4 4 4 4 4 4 4 3 2 2 2 2 2 2 3 1 1 1 1 2 0 1 1 2 2 2 1 1 1 2 2 3 2 2 2
3 3 3 4 3 3 4 4 4 4 5 4 4 4 4 3 4 3 3 3 2 2 3 2 1 1 2 1 2 2 1 1 1 4 2 1 1 1 2 2 2 3 3
4 4 4 4 4 3 4 4 5 5 5 5 5 5 4 4 4 4 4 3 2 2 2 3 2 1 2 1 2 2 2 1 1 2 2 2 1 0 1 1 1 2 2
4 4 4 4 4 4 4 4 5 5 5 5 5 5 5 5 5 5 4 4 3 3 3 3 2 2 2 2 2 2 2 1 1 1 0 1 2 2 1 0 0 1 1
4 4 4 4 4 4 3 4 5 5 6 5 5 5 5 3 3 3 3 3 3 3 3 3 3 3 2 2 3 2 2 2 2 1 1 1 2 2 2 3 2 0 0
5 4 4 5 5 3 2 3 5 6 6 6 6 5 5 5 5 6 5 4 4 5 4 4 4 4 4 3 2 3 3 2 2 1 2 2 1 2 2 1 2 2 1
5 5 5 5 5 4 3 5 6 6 6 6 6 5 4 4 5 6 8 8 7 7 6 6 6 5 5 4 4 5 4 4 3 1 2 3 2 3 2 1 3 2 1
4 5 5 5 5 4 4 5 7 8 7 7 7 7 6 6 6 6 6 7 7 7 7 7 7 5 4 3 4 5 4 4 3 2 2 4 3 3 3 2 4 3 3
5 4 4 5 6 5 4 6 7 6 6 7 7 6 6 7 4 5 7 7 7 6 5 5 5 3 2 2 3 4 3 3 3 3 3 3 3 3 3 3 3 5 4
4 4 4 5 6 6 3 5 7 5 6 5 5 6 5 6 4 7 8 8 8 7 6 6 7 6 6 6 7 6 5 5 4 3 3 3 3 2 3 2 2 3 4
Wind_Direction
70 77 78 76 72 71 74 69 67 66 61 60 59 57 59 61 63 62 70 61 55 56 61 64 67 68 73 74 75 75 75 71 68 71 70 65 56 49 50 47 22 7 4
72 67 71 71 70 67 62 71 74 70 65 61 58 57 55 59 62 64 69 75 63 53 53 57 60 62 66 71 71 72 69 69 71 65 59 48 46 29 16 10 359 359 349
67 73 69 76 75 80 80 66 72 67 71 74 71 59 54 48 55 60 62 59 77 71 55 49 51 55 56 58 59 60 61 62 66 56 47 35 31 18 3 360 2 348 331
61 64 63 71 77 73 76 79 72 78 77 68 67 64 65 59 50 50 59 60 51 63 76 55 45 47 49 54 55 52 54 57 62 57 44 35 31 15 359 351 337 329 323
65 77 62 54 77 81 76 74 70 68 75 69 76 72 63 59 53 52 55 51 54 46 60 82 65 46 39 44 48 42 44 56 59 53 42 35 27 15 352 340 327 317 312
55 75 94 91 79 85 79 87 83 71 66 74 79 73 58 61 54 51 44 48 40 40 38 40 66 88 57 36 35 35 36 50 52 53 49 40 25 11 359 352 342 326 315
55 74 53 59 58 80 85 104 103 119 109 69 114 107 108 104 68 63 40 40 49 38 40 36 25 23 89 91 44 28 31 52 46 43 42 34 21 7 6 11 18 26 19
79 74 78 87 96 84 87 90 140 171 134 204 279 231 162 150 124 70 63 33 33 46 34 28 33 28 4 33 72 51 34 37 33 37 36 29 16 1 1 17 17 22 25
102 119 58 39 95 135 105 152 196 201 179 159 332 320 308 48 97 150 86 63 42 24 31 23 18 17 9 23 72 87 45 29 23 28 39 32 21 10 4 21 47 35 30
158 177 196 227 195 163 160 198 206 244 242 215 144 313 327 359 279 188 169 102 48 17 18 18 5 12 16 26 58 58 49 33 29 34 41 33 26 25 27 54 68 52 23
190 191 216 218 214 198 199 203 223 264 255 260 240 225 316 285 279 278 265 267 172 68 27 6 2 9 19 20 38 61 53 32 33 37 35 31 32 31 40 55 57 46 45
200 196 223 228 223 219 211 217 215 230 258 260 258 245 243 265 277 277 276 275 295 8 7 8 351 11 7 6 57 58 48 28 35 34 28 23 27 31 51 69 63 59 66
210 212 221 234 238 232 225 221 227 231 235 242 246 254 256 269 295 287 285 292 288 265 245 242 359 2 352 356 73 62 76 39 35 32 25 12 17 35 54 60 52 54 57
231 237 240 247 244 241 233 226 238 235 239 237 241 243 248 252 277 275 287 287 275 258 250 239 126 334 354 337 58 269 118 85 45 33 22 13 32 56 53 49 34 30 37
247 244 242 243 241 243 240 228 233 229 237 240 239 235 242 234 251 268 257 261 277 277 264 250 234 305 326 343 66 261 167 96 60 25 18 26 50 67 55 35 19 11 15
249 246 244 246 238 232 226 223 232 234 233 226 241 243 240 239 242 244 243 252 266 277 284 295 284 249 319 281 343 282 9 132 141 68 24 36 51 48 35 24 25 16 8
247 246 256 261 256 238 219 209 226 223 235 226 219 224 222 233 231 230 235 236 245 262 270 280 264 227 233 268 269 287 281 249 152 128 78 47 55 46 38 33 22 17 22
263 264 262 264 261 252 240 221 220 221 230 234 230 228 226 214 224 226 225 230 235 251 259 270 239 233 247 277 296 284 277 279 271 114 117 87 67 49 41 33 18 15 21
260 259 256 260 260 254 243 233 227 227 228 231 232 234 233 222 220 215 216 223 222 232 254 252 253 253 251 251 269 269 254 266 277 121 158 179 164 110 51 35 23 25 19
260 265 260 257 256 250 244 239 234 234 232 231 233 235 236 231 227 223 219 221 221 220 230 242 242 234 236 245 254 253 242 227 243 265 232 187 168 189 192 219 45 27 10
255 257 259 257 253 246 247 255 243 237 239 237 236 235 233 238 265 250 242 234 224 227 226 235 240 239 230 224 243 246 250 256 238 253 261 230 205 215 194 199 204 177 33
253 253 257 255 251 243 231 245 259 242 241 242 242 238 223 210 212 215 226 243 248 241 237 236 246 246 247 236 238 245 239 249 251 219 257 256 240 252 241 233 126 150 191
254 252 253 253 253 245 216 222 237 255 250 250 249 241 228 221 222 222 209 213 224 238 246 253 250 252 254 240 234 239 237 248 261 222 246 254 236 251 251 215 121 178 219
256 253 253 252 252 247 224 227 230 241 248 249 249 247 238 227 219 234 228 221 223 220 225 235 250 254 259 253 239 246 244 245 255 212 233 258 247 254 251 225 164 201 229
262 259 257 255 254 247 224 231 235 238 242 246 247 246 246 239 195 216 237 234 230 223 211 232 269 282 300 272 253 235 219 223 238 221 208 255 261 262 252 233 192 197 222
265 266 261 260 259 259 233 233 239 242 242 242 242 239 234 248 216 207 233 237 236 231 221 212 221 219 223 207 212 228 226 231 241 234 195 234 245 248 252 226 227 211 222